DLH3VC EDDF-EDDM

Flight info

Callsign DLH3VC
Flight time N/A
Altitude 23000
Route CINDY8S/18 CINDY Z74 HAREM T104 ROKIL ROKIL1A
Aircraft A320/M-SDE3FGHIRWY/LB1

Departure

Time N/A
Airport Frankfurt Main Airport (EDDF)

Arrival

Time 2026-05-01 07:36
Airport Munich Airport (EDDM)
Time Latitude Longitude Altitude Speed Heading
2026-05-01 07:23 48.25625 11.77408 6453 ft 267 kts 157°
2026-05-01 07:23 48.22147 11.79350 6298 ft 266 kts 157°
2026-05-01 07:24 48.20412 11.80316 6211 ft 266 kts 156°
2026-05-01 07:24 48.18678 11.81285 6135 ft 266 kts 157°
2026-05-01 07:24 48.16903 11.82053 6057 ft 267 kts 171°
2026-05-01 07:24 48.15047 11.81816 5986 ft 272 kts 195°
2026-05-01 07:25 48.13376 11.80469 5896 ft 277 kts 219°
2026-05-01 07:25 48.12185 11.78193 5817 ft 281 kts 243°
2026-05-01 07:25 48.11709 11.75375 5735 ft 279 kts 268°
2026-05-01 07:25 48.12015 11.72593 5653 ft 266 kts 292°
2026-05-01 07:26 48.12721 11.70106 5575 ft 255 kts 292°
2026-05-01 07:26 48.13335 11.67635 5495 ft 252 kts 289°
2026-05-01 07:26 48.13852 11.65134 5416 ft 252 kts 285°
2026-05-01 07:26 48.14277 11.62586 5338 ft 252 kts 282°
2026-05-01 07:27 48.14608 11.60052 5274 ft 252 kts 279°
2026-05-01 07:27 48.15054 11.57536 5193 ft 250 kts 297°
2026-05-01 07:27 48.15634 11.55999 5129 ft 250 kts 303°
2026-05-01 07:27 48.16880 11.53098 4990 ft 249 kts 304°
2026-05-01 07:28 48.17835 11.50928 5009 ft 250 kts 304°
2026-05-01 07:28 48.18796 11.48755 5001 ft 250 kts 304°
2026-05-01 07:28 48.19446 11.47286 5020 ft 250 kts 304°
2026-05-01 07:28 48.20408 11.45109 5004 ft 251 kts 304°
2026-05-01 07:29 48.21371 11.42923 5001 ft 251 kts 304°
2026-05-01 07:29 48.22331 11.40737 5005 ft 251 kts 304°
2026-05-01 07:29 48.23450 11.38810 4997 ft 248 kts 328°
2026-05-01 07:29 48.25010 11.37797 5006 ft 243 kts 350°
2026-05-01 07:30 48.26676 11.37578 5008 ft 239 kts
2026-05-01 07:30 48.28275 11.38112 5005 ft 234 kts 26°
2026-05-01 07:30 48.29653 11.39290 4999 ft 221 kts 42°
2026-05-01 07:30 48.30686 11.40900 5008 ft 209 kts 58°
2026-05-01 07:31 48.31358 11.42776 4990 ft 202 kts 73°
2026-05-01 07:31 48.32003 11.48971 4924 ft 202 kts 85°
2026-05-01 07:32 48.32338 11.53153 4445 ft 201 kts 86°
2026-05-01 07:32 48.32505 11.55257 4170 ft 204 kts 85°
2026-05-01 07:33 48.32837 11.59436 3620 ft 193 kts 85°
2026-05-01 07:33 48.32989 11.61351 3414 ft 173 kts 85°
2026-05-01 07:33 48.33245 11.64586 2970 ft 139 kts 86°
2026-05-01 07:34 48.33356 11.66006 2789 ft 135 kts 85°
2026-05-01 07:34 48.33572 11.68753 2391 ft 132 kts 83°
2026-05-01 07:34 48.33690 11.70120 2201 ft 133 kts 84°
2026-05-01 07:35 48.33776 11.71490 2016 ft 132 kts 85°
2026-05-01 07:35 48.33897 11.72846 1854 ft 132 kts 84°
2026-05-01 07:35 48.34017 11.74206 1692 ft 131 kts 85°
2026-05-01 07:35 48.34116 11.75552 1519 ft 129 kts 85°
2026-05-01 07:36 48.34218 11.76856 1472 ft 116 kts 85°
2026-05-01 07:36 48.34273 11.77769 1468 ft 47 kts 83°
2026-05-01 07:36 48.34284 11.77914 1469 ft 4 kts 83°
2026-05-01 07:36 48.34293 11.78017 1463 ft 20 kts 82°
2026-05-01 07:37 48.34471 11.78537 1468 ft 26 kts 53°
2026-05-01 07:37 48.34487 11.78568 1465 ft 0 kts 52°
2026-05-01 07:37 48.34506 11.78603 1467 ft 12 kts 52°
2026-05-01 07:38 48.34561 11.78710 1461 ft 0 kts 52°
2026-05-01 07:38 48.34594 11.78779 1463 ft 17 kts 56°
2026-05-01 07:38 48.34660 11.79273 1467 ft 30 kts 84°
2026-05-01 07:39 48.34677 11.79482 1466 ft 0 kts 82°
2026-05-01 07:39 48.34679 11.79499 1466 ft 4 kts 79°
2026-05-01 07:39 48.34779 11.79575 1467 ft 1 kts 17°
2026-05-01 07:40 48.34826 11.79564 1459 ft 18 kts 357°
2026-05-01 07:40 48.34990 11.79536 1462 ft 4 kts 353°
2026-05-01 07:40 48.35012 11.79554 1463 ft 11 kts 51°
2026-05-01 07:40 48.34992 11.79612 1459 ft 11 kts 117°
2026-05-01 07:41 48.35063 11.79662 1462 ft 4 kts 351°
2026-05-01 07:41 48.35141 11.79646 1466 ft 14 kts 353°
2026-05-01 07:41 48.35256 11.79627 1466 ft 0 kts 354°
2026-05-01 07:42 48.35257 11.79627 1467 ft 1 kts 354°
2026-05-01 07:42 48.35286 11.79622 1466 ft 12 kts 353°
2026-05-01 07:42 48.35433 11.79597 1460 ft 29 kts 354°
2026-05-01 07:42 48.35582 11.79571 1467 ft 20 kts 353°
2026-05-01 07:43 48.35668 11.79562 1464 ft 11 kts 20°
2026-05-01 07:43 48.35683 11.79656 1467 ft 0 kts 78°
2026-05-01 07:43 48.35684 11.79666 1467 ft 0 kts 79°
2026-05-01 07:44 48.35684 11.79667 1467 ft 0 kts 79°
2026-05-01 07:44 48.35684 11.79689 1467 ft 0 kts 80°
2026-05-01 07:45 48.35685 11.79699 1467 ft 1 kts 80°
2026-05-01 07:45 48.35686 11.79704 1467 ft 0 kts 80°